Regional Weather Roundup
Issued by NWS

Home | Current Version | Previous Version | Text Only | Print | Product List | Glossary Off
Versions: 1 2 3 4 5 6 7 8 9 10 11 12 13 14 15 16 17 18 19 20 21 22 23 24 25 26 27 28 29 30 31 32 33 34 35 36 37 38 39 40 41 42 43 44 45 46 47 48 49 50

000
ASUS43 KLOT 190908
RWRIL

ILLINOIS REGIONAL WEATHER ROUNDUP
NATIONAL WEATHER SERVICE CHICAGO/ROMEOVILLE IL
300 AM CST SUN NOV 19 2017

NOTE: "FAIR" INDICATES FEW OR NO CLOUDS BELOW 12,000 FEET WITH NO
SIGNIFICANT WEATHER AND/OR OBSTRUCTIONS TO VISIBILITY.

* THESE STATIONS ARE NOT UNDER NWS QUALITY CONTROL. THEY ALSO MAY NOT
  REPORT WEATHER SUCH AS PRECIPITATION OR FOG.

ILZ001-002-007-009-015-016-024-191000-
NORTHWEST ILLINOIS

CITY           SKY/WX    TMP DP  RH WIND       PRES   REMARKS
MOLINE         CLEAR     26  17  68 NW15G25   30.05R WCI  14
STERLING*      CLOUDY    28  23  81 MISG        N/A
SAVANNA*       MOCLDY    28  19  68 NW16G24   30.01R WCI  17
$$

ILZ003-004-008-010-011-017-018-191000-
NORTH CENTRAL ILLINOIS

CITY           SKY/WX    TMP DP  RH WIND       PRES   REMARKS
ROCKFORD       MOCLDY    29  20  69 NW13      29.97R WCI  19
FREEPORT*      CLOUDY    28  20  73 W17G23    29.99R WCI  15
ROCHELLE*      CLOUDY    30  23  77 NW15      29.96R WCI  19
DE KALB*       CLOUDY    30  24  76 NW17G26   29.94R WCI  19
PERU*          PTCLDY    28  23  79 NW15G24   29.99R WCI  17
$$

ILZ005-006-012>014-019>023-191000-
NORTHEAST ILLINOIS

CITY           SKY/WX    TMP DP  RH WIND       PRES   REMARKS
CHICAGO-OHARE  CLOUDY    34  23  64 NW16      29.90R WCI  24
CHICAGO-MIDWAY CLOUDY    35  24  64 NW16      29.91R WCI  25
AURORA         CLOUDY    32  26  78 NW17      29.93R WCI  21
LANSING*       CLOUDY    35  28  74 NW10      29.90R WCI  27
JOLIET*        CLOUDY    36  27  69 NW6       29.93R WCI  31
WAUKEGAN       CLOUDY    33  22  63 VRB6      29.88R WCI  28
DUPAGE AIRPORT CLOUDY    33  25  72 NW15G22   29.91R WCI  23
KANKAKEE*      CLOUDY    35  27  73 NW10G17   29.93R WCI  27
WHEELING       CLOUDY    34  23  64 NW15G24   29.92R WCI  24
MORRIS*        CLOUDY    33  27  79 NW21G28   29.93R WCI  21
ROMEOVILLE*    CLOUDY    33  27  76 NW12      29.92R WCI  25
NORTHERLY ISL    N/A     35  23  62 W13         N/A  WCI  26
$$

LMZ740>746-191000-
SOUTHERN LAKE MICHIGAN

STATION/POSITION SKY/WX   TEMP    WIND        PRES    VSBY  WAVE
                          AIR SEA DIR/SP/G                  HT/PER
                          (F)     (DEG/KT/KT) (MB)    (MI)  (FT/S)
SOUTHERN BUOY              37 49  330/ 21/ 25 1010.8R         7/ 8
HARRISON CRIB              36     300/ 22/ 24   N/A
BURNHAM HARBOR             35     300/  9/ 18   N/A
BURNS HARBOR               38     310/ 19/ 23 1011.9R
MICHIGAN CITY              38     310/ 25/ 27   N/A
$$

ILZ025>027-034>036-040-047-049-050-058-095>099-191000-
WEST-CENTRAL ILLINOIS

CITY           SKY/WX    TMP DP  RH WIND       PRES   REMARKS
QUINCY         PTCLDY    30  22  72 NW15G22   30.10R WCI  19
GALESBURG*     CLEAR     27  21  79 W14       30.06R WCI  15
MACOMB*        PTCLDY    28  21  76 NW17      30.09S WCI  15
JACKSONVILLE*  CLEAR     30  20  66 NW21G31   30.08R WCI  17
PITTSFIELD*    CLEAR     31  23  71 W9        30.11R WCI  23
$$

ILZ028>032-037-038-041>044-048-051>054-059>061-191000-
CENTRAL ILLINOIS

CITY           SKY/WX    TMP DP  RH WIND       PRES   REMARKS
PONTIAC        CLOUDY    32  31  94 NW16G25   29.98R WCI  22
BLOOMINGTON    CLOUDY    31  25  78 W21       29.99R WCI  18
DECATUR        CLOUDY    32  26  78 NW16G23   30.02R WCI  21
PEORIA         PTCLDY    29  22  75 NW12G22   30.04R WCI  19
LACON*         PTCLDY    28  24  82 NW14G21   30.01R WCI  17
LINCOLN*       CLOUDY    31  26  81 NW13G20   30.04R WCI  22
SPRINGFIELD    CLEAR     31  22  69 NW22      30.06R WCI  18
TAYLORVILLE    PTCLDY    31  24  75 NW12      30.05R WCI  22
$$

ILZ033-039-045-046-055>057-062-063-191000-
EAST-CENTRAL ILLINOIS

CITY           SKY/WX    TMP DP  RH WIND       PRES   REMARKS
CHAMPAIGN      CLOUDY    33  28  81 W14       29.98R WCI  23
DANVILLE*      CLOUDY    33  29  88 W10       29.92R WCI  24
RANTOUL*       CLOUDY    34  30  84 W16       29.96R WCI  24
MATTOON        CLOUDY    33  28  81 W15       29.99R WCI  23
PARIS*         PTCLDY    32  29  90 W14       29.98R WCI  22
$$

ILZ079-100>102-191000-
SOUTHWEST ILLINOIS

CITY           SKY/WX    TMP DP  RH WIND       PRES   REMARKS
ALTON          CLEAR     31  24  73 NW13G21   30.10R WCI  22
BELLEVILLE     CLEAR     34  22  61 NW13G21   30.09R WCI  25
CAHOKIA*       CLEAR     34  23  64 NW9       30.11R WCI  27
SPARTA*        CLEAR     34  24  66 NW5       30.10R WCI  30
$$

ILZ064>066-069>071-074>076-080>082-084>086-088>090-092>094-191000-
SOUTH-CENTRAL ILLINOIS

CITY           SKY/WX    TMP DP  RH WIND       PRES   REMARKS
CARBONDALE     CLEAR     36  26  67 NW12      30.09R WCI  28
CAIRO*         CLEAR     38  29  70 NW8       30.10R WCI  32
EFFINGHAM*     CLOUDY    34  28  80 W14       30.04S WCI  24
MARION         MOCLDY    39  28  63 NW8G18    30.09R WCI  34
MT. VERNON     CLEAR     34  25  69 VRB3      30.07R
CENTRALIA*     CLEAR     34  26  72 NW10      30.06R WCI  26
SALEM*         CLEAR     34  26  73 NW10      30.06R WCI  26
METROPOLIS*    CLOUDY    40  32  71 NW13G20   30.08R
$$

ILZ067-068-072-073-078-083-087-091-191000-
SOUTHEAST ILLINOIS

CITY           SKY/WX    TMP DP  RH WIND       PRES   REMARKS
LAWRENCEVILLE  CLOUDY    37  30  75 W15       30.01R WCI  28
FLORA*         CLOUDY    36  29  75 W13G20    29.93R WCI  28
FAIRFIELD*     CLOUDY    36  28  73 W8        30.04S WCI  30
HARRISBURG*    CLEAR     37  29  74 NW14      30.07R WCI  28
ROBINSON*      CLOUDY    36  31  82 NW14G21   30.01R WCI  27
CARMI*         CLOUDY    36  30  79 NW14G20   30.05R WCI  27
$$

ABBREVIATIONS USED IN REMARKS
   TC - TEMPERATURE IN CELSIUS
  WCI - WIND CHILL INDEX
   HX - HEAT INDEX
  VSB - VISIBILITY
$$




USA.gov is the U.S. government's official web portal to all federal, state and local government web resources and services.